TimeEST,TemperatureF,Dew PointF,Humidity,Sea Level PressureIn,VisibilityMPH,Wind Direction,Wind SpeedMPH,Gust SpeedMPH,PrecipitationIn,Events,Conditions,WindDirDegrees,DateUTC
12:15 AM,44.6,44.6,100,30.29,7.0,NNE,3.5,-,N/A,,Clear,30,2012-11-17 05:15:00
12:35 AM,44.6,44.6,100,30.28,7.0,North,4.6,-,N/A,,Clear,360,2012-11-17 05:35:00
12:55 AM,44.6,44.6,100,30.28,7.0,North,4.6,-,N/A,,Clear,360,2012-11-17 05:55:00
1:15 AM,46.4,44.6,93,30.28,10.0,North,5.8,-,N/A,,Clear,10,2012-11-17 06:15:00
1:35 AM,44.6,44.6,100,30.28,7.0,NNE,5.8,-,N/A,,Clear,20,2012-11-17 06:35:00
1:55 AM,44.6,44.6,100,30.29,10.0,NNE,5.8,-,N/A,,Clear,20,2012-11-17 06:55:00
2:15 AM,44.6,44.6,100,30.29,10.0,NNE,6.9,-,N/A,,Clear,30,2012-11-17 07:15:00
2:35 AM,44.6,44.6,100,30.29,10.0,NNE,6.9,-,N/A,,Clear,30,2012-11-17 07:35:00
2:55 AM,44.6,44.6,100,30.29,10.0,NNE,5.8,-,N/A,,Clear,30,2012-11-17 07:55:00
3:15 AM,44.6,44.6,100,30.29,10.0,NE,6.9,-,N/A,,Clear,40,2012-11-17 08:15:00
3:35 AM,44.6,44.6,100,30.29,10.0,NNE,6.9,-,N/A,,Clear,30,2012-11-17 08:35:00
3:55 AM,44.6,42.8,93,30.28,10.0,NNE,6.9,-,N/A,,Clear,20,2012-11-17 08:55:00
4:15 AM,44.6,42.8,93,30.29,10.0,NNE,9.2,-,N/A,,Clear,30,2012-11-17 09:15:00
4:35 AM,44.6,42.8,93,30.29,10.0,NNE,8.1,-,N/A,,Clear,30,2012-11-17 09:35:00
4:55 AM,44.6,42.8,93,30.29,10.0,NNE,10.4,-,N/A,,Clear,20,2012-11-17 09:55:00
5:15 AM,44.6,42.8,93,30.29,10.0,NNE,9.2,-,N/A,,Clear,30,2012-11-17 10:15:00
5:35 AM,44.6,42.8,93,30.30,10.0,NNE,8.1,-,N/A,,Clear,30,2012-11-17 10:35:00
5:55 AM,42.8,42.8,100,30.31,10.0,NE,8.1,-,N/A,,Clear,40,2012-11-17 10:55:00
6:15 AM,42.8,41.0,93,30.31,10.0,NNE,8.1,-,N/A,,Clear,30,2012-11-17 11:15:00
6:35 AM,42.8,41.0,93,30.32,10.0,NNE,6.9,-,N/A,,Clear,30,2012-11-17 11:35:00
6:55 AM,42.8,41.0,93,30.33,10.0,NNE,6.9,-,N/A,,Clear,30,2012-11-17 11:55:00
7:15 AM,42.8,41.0,93,30.34,10.0,NE,6.9,-,N/A,,Clear,40,2012-11-17 12:15:00
7:35 AM,42.8,41.0,93,30.34,10.0,NNE,6.9,-,N/A,,Clear,20,2012-11-17 12:35:00
7:55 AM,44.6,42.8,93,30.34,10.0,NNE,8.1,-,N/A,,Clear,20,2012-11-17 12:55:00
8:15 AM,44.6,42.8,93,30.34,10.0,NNE,11.5,-,N/A,,Clear,30,2012-11-17 13:15:00
8:55 AM,48.2,42.8,82,30.35,10.0,NE,11.5,18.4,N/A,,Clear,40,2012-11-17 13:55:00
9:15 AM,50.0,41.0,71,30.35,10.0,NE,15.0,25.3,N/A,,Clear,50,2012-11-17 14:15:00
9:35 AM,50.0,41.0,71,30.35,10.0,NE,10.4,21.9,N/A,,Clear,40,2012-11-17 14:35:00
9:55 AM,51.8,41.0,67,30.36,10.0,NE,10.4,-,N/A,,Clear,50,2012-11-17 14:55:00
10:15 AM,53.6,39.2,58,30.36,10.0,NE,12.7,17.3,N/A,,Clear,40,2012-11-17 15:15:00
10:35 AM,55.4,41.0,58,30.35,10.0,NE,10.4,16.1,N/A,,Clear,40,2012-11-17 15:35:00
10:55 AM,53.6,39.2,58,30.35,10.0,NE,15.0,-,N/A,,Clear,50,2012-11-17 15:55:00
11:15 AM,55.4,41.0,58,30.34,10.0,NNE,12.7,17.3,N/A,,Clear,20,2012-11-17 16:15:00
11:35 AM,59.0,41.0,51,30.34,10.0,NNE,15.0,-,N/A,,Clear,30,2012-11-17 16:35:00
12:35 PM,60.8,41.0,48,30.32,10.0,NE,6.9,16.1,N/A,,Clear,40,2012-11-17 17:35:00
12:55 PM,62.6,42.8,48,30.31,10.0,NE,10.4,16.1,N/A,,Clear,40,2012-11-17 17:55:00
1:15 PM,62.6,41.0,45,30.30,10.0,North,8.1,-,N/A,,Clear,350,2012-11-17 18:15:00
1:35 PM,62.6,41.0,45,30.30,10.0,NE,8.1,16.1,N/A,,Clear,40,2012-11-17 18:35:00
2:15 PM,64.4,41.0,42,30.29,10.0,NE,10.4,16.1,N/A,,Clear,40,2012-11-17 19:15:00
2:35 PM,62.6,41.0,45,30.28,10.0,NNE,11.5,-,N/A,,Clear,20,2012-11-17 19:35:00
2:55 PM,62.6,41.0,45,30.28,10.0,NNE,12.7,18.4,N/A,,Clear,30,2012-11-17 19:55:00
3:15 PM,64.4,41.0,42,30.28,10.0,NNE,13.8,19.6,N/A,,Scattered Clouds,30,2012-11-17 20:15:00
3:35 PM,62.6,41.0,45,30.29,10.0,NE,10.4,-,N/A,,Scattered Clouds,40,2012-11-17 20:35:00
3:55 PM,62.6,37.4,39,30.28,10.0,NE,12.7,-,N/A,,Scattered Clouds,50,2012-11-17 20:55:00
4:15 PM,62.6,35.6,37,30.28,10.0,NNE,8.1,18.4,N/A,,Clear,30,2012-11-17 21:15:00
4:35 PM,62.6,35.6,37,30.29,10.0,NE,6.9,-,N/A,,Clear,40,2012-11-17 21:35:00
4:55 PM,60.8,35.6,39,30.29,10.0,NE,5.8,-,N/A,,Clear,40,2012-11-17 21:55:00
5:15 PM,59.0,35.6,42,30.30,10.0,NNE,5.8,-,N/A,,Clear,30,2012-11-17 22:15:00
5:35 PM,57.2,35.6,44,30.30,10.0,NNE,6.9,-,N/A,,Clear,30,2012-11-17 22:35:00
5:55 PM,55.4,35.6,47,30.32,10.0,ENE,6.9,-,N/A,,Clear,60,2012-11-17 22:55:00
6:15 PM,55.4,35.6,47,30.33,10.0,ENE,9.2,-,N/A,,Clear,60,2012-11-17 23:15:00
6:35 PM,55.4,33.8,44,30.33,10.0,ENE,9.2,-,N/A,,Clear,60,2012-11-17 23:35:00
6:55 PM,55.4,33.8,44,30.33,10.0,NE,8.1,-,N/A,,Clear,50,2012-11-17 23:55:00
7:15 PM,53.6,33.8,47,30.33,10.0,NE,8.1,-,N/A,,Clear,40,2012-11-18 00:15:00
7:35 PM,53.6,33.8,47,30.34,10.0,NE,6.9,-,N/A,,Clear,40,2012-11-18 00:35:00
7:55 PM,53.6,33.8,47,30.34,10.0,NE,8.1,-,N/A,,Clear,40,2012-11-18 00:55:00
8:15 PM,51.8,33.8,50,30.34,10.0,NE,8.1,-,N/A,,Clear,50,2012-11-18 01:15:00
8:35 PM,51.8,35.6,54,30.34,10.0,NE,8.1,-,N/A,,Scattered Clouds,40,2012-11-18 01:35:00
8:55 PM,51.8,35.6,54,30.33,10.0,NE,8.1,-,N/A,,Mostly Cloudy,40,2012-11-18 01:55:00
9:15 PM,51.8,35.6,54,30.33,10.0,NNE,6.9,-,N/A,,Overcast,30,2012-11-18 02:15:00
9:55 PM,51.8,37.4,58,30.33,10.0,NE,6.9,-,N/A,,Mostly Cloudy,40,2012-11-18 02:55:00
10:15 PM,51.8,39.2,62,30.32,10.0,NE,5.8,-,N/A,,Mostly Cloudy,40,2012-11-18 03:15:00
10:35 PM,53.6,41.0,62,30.32,10.0,NNE,8.1,-,N/A,,Overcast,30,2012-11-18 03:35:00
10:55 PM,53.6,42.8,67,30.32,10.0,NE,6.9,-,N/A,,Overcast,40,2012-11-18 03:55:00
11:15 PM,53.6,42.8,67,30.32,10.0,NE,9.2,-,N/A,,Overcast,40,2012-11-18 04:15:00
11:35 PM,55.4,42.8,63,30.32,10.0,NE,10.4,17.3,N/A,,Overcast,50,2012-11-18 04:35:00
11:55 PM,55.4,42.8,63,30.31,10.0,NE,11.5,16.1,N/A,,Overcast,50,2012-11-18 04:55:00